owner,sensor,date,latitude,longitude,vertical_datum,mass_concentration_of_oxygen_in_sea_water,qcFlag 
SCCF RECON,ioos:station:SCCF:56:1,2014-06-01T00:00:00Z,26.4645,-82.1044,1.57,5.48,1111122 
SCCF RECON,ioos:station:SCCF:56:1,2014-06-01T01:00:00Z,26.4645,-82.1044,1.465,5.43,1111122 
SCCF RECON,ioos:station:SCCF:56:1,2014-06-01T02:00:00Z,26.4645,-82.1044,1.36,4.45,1111122 
SCCF RECON,ioos:station:SCCF:56:1,2014-06-01T03:00:00Z,26.4645,-82.1044,1.27,4.31,1111122 
SCCF RECON,ioos:station:SCCF:56:1,2014-06-01T04:00:00Z,26.4645,-82.1044,1.21,4.49,1111122 
SCCF RECON,ioos:station:SCCF:56:1,2014-06-01T05:00:00Z,26.4645,-82.1044,1.19,5.54,1111122 
SCCF RECON,ioos:station:SCCF:56:1,2014-06-01T06:00:00Z,26.4645,-82.1044,1.22,4.99,1111122 
SCCF RECON,ioos:station:SCCF:56:1,2014-06-01T07:00:00Z,26.4645,-82.1044,1.31,4.99,1111122 
SCCF RECON,ioos:station:SCCF:56:1,2014-06-01T08:00:00Z,26.4645,-82.1044,1.4,5.22,1111122 
SCCF RECON,ioos:station:SCCF:56:1,2014-06-01T09:00:00Z,26.4645,-82.1044,1.47,4.92,1111122 
SCCF RECON,ioos:station:SCCF:56:1,2014-06-01T10:00:00Z,26.4645,-82.1044,1.512,4.84,1111122 
SCCF RECON,ioos:station:SCCF:56:1,2014-06-01T11:00:00Z,26.4645,-82.1044,1.53,4.77,1111122 
SCCF RECON,ioos:station:SCCF:56:1,2014-06-01T12:00:00Z,26.4645,-82.1044,1.53,4.46,1111122 
SCCF RECON,ioos:station:SCCF:56:1,2014-06-01T13:00:00Z,26.4645,-82.1044,1.52,4.22,1111122 
SCCF RECON,ioos:station:SCCF:56:1,2014-06-01T14:00:00Z,26.4645,-82.1044,1.51,4.03,1111122 
SCCF RECON,ioos:station:SCCF:56:1,2014-06-01T15:00:00Z,26.4645,-82.1044,1.51,4.33,1111122 
SCCF RECON,ioos:station:SCCF:56:1,2014-06-01T16:00:00Z,26.4645,-82.1044,1.57,7.56,1111122 
SCCF RECON,ioos:station:SCCF:56:1,2014-06-01T17:00:00Z,26.4645,-82.1044,1.62,8.43,1111122 
SCCF RECON,ioos:station:SCCF:56:1,2014-06-01T18:00:00Z,26.4645,-82.1044,1.67,8.35,1111122 
SCCF RECON,ioos:station:SCCF:56:1,2014-06-01T19:00:00Z,26.4645,-82.1044,1.72,8.21,1111122 
SCCF RECON,ioos:station:SCCF:56:1,2014-06-01T20:00:00Z,26.4645,-82.1044,1.768,7.97,1111122 
SCCF RECON,ioos:station:SCCF:56:1,2014-06-01T21:00:00Z,26.4645,-82.1044,1.78,8.14,1111122 
SCCF RECON,ioos:station:SCCF:56:1,2014-06-01T22:00:00Z,26.4645,-82.1044,1.76,8.07,1111122 
SCCF RECON,ioos:station:SCCF:56:1,2014-06-01T23:00:00Z,26.4645,-82.1044,1.71,6.81,1111122 
SCCF RECON,ioos:station:SCCF:56:1,2014-06-02T00:00:00Z,26.4645,-82.1044,1.63,5.69,1111122 
SCCF RECON,ioos:station:SCCF:56:1,2014-06-02T01:00:00Z,26.4645,-82.1044,1.546,5.09,1111122 
SCCF RECON,ioos:station:SCCF:56:1,2014-06-02T02:00:00Z,26.4645,-82.1044,1.45,4.22,1111122 
SCCF RECON,ioos:station:SCCF:56:1,2014-06-02T03:00:00Z,26.4645,-82.1044,1.36,4.11,1111122 
SCCF RECON,ioos:station:SCCF:56:1,2014-06-02T04:00:00Z,26.4645,-82.1044,1.27,3.81,1111122 
SCCF RECON,ioos:station:SCCF:56:1,2014-06-02T05:00:00Z,26.4645,-82.1044,1.22,4.36,1111122 
SCCF RECON,ioos:station:SCCF:56:1,2014-06-02T06:00:00Z,26.4645,-82.1044,1.23,5.13,1111122 
SCCF RECON,ioos:station:SCCF:56:1,2014-06-02T07:00:00Z,26.4645,-82.1044,1.29,5.34,1111122 
SCCF RECON,ioos:station:SCCF:56:1,2014-06-02T08:00:00Z,26.4645,-82.1044,1.36,5.38,1111122 
SCCF RECON,ioos:station:SCCF:56:1,2014-06-02T09:00:00Z,26.4645,-82.1044,1.43,5.23,1111122 
SCCF RECON,ioos:station:SCCF:56:1,2014-06-02T10:00:00Z,26.4645,-82.1044,1.471,4.57,1111122 
SCCF RECON,ioos:station:SCCF:56:1,2014-06-02T11:00:00Z,26.4645,-82.1044,1.5,4.36,1111122 
SCCF RECON,ioos:station:SCCF:56:1,2014-06-02T12:00:00Z,26.4645,-82.1044,1.52,4.73,1111122 
SCCF RECON,ioos:station:SCCF:56:1,2014-06-02T13:00:00Z,26.4645,-82.1044,1.52,4.38,1111122 
SCCF RECON,ioos:station:SCCF:56:1,2014-06-02T14:00:00Z,26.4645,-82.1044,1.51,4.2,1111122 
SCCF RECON,ioos:station:SCCF:56:1,2014-06-02T15:00:00Z,26.4645,-82.1044,1.5,4.26,1111122 
SCCF RECON,ioos:station:SCCF:56:1,2014-06-02T16:00:00Z,26.4645,-82.1044,1.49,4.64,1111122 
SCCF RECON,ioos:station:SCCF:56:1,2014-06-02T17:00:00Z,26.4645,-82.1044,1.51,6.35,1111122 
SCCF RECON,ioos:station:SCCF:56:1,2014-06-02T18:00:00Z,26.4645,-82.1044,1.54,6.39,1111122 
SCCF RECON,ioos:station:SCCF:56:1,2014-06-02T19:00:00Z,26.4645,-82.1044,1.58,6.74,1111122 
SCCF RECON,ioos:station:SCCF:56:1,2014-06-02T20:00:00Z,26.4645,-82.1044,1.62,6.95,1111122 
SCCF RECON,ioos:station:SCCF:56:1,2014-06-02T21:00:00Z,26.4645,-82.1044,1.66,6.85,1111122 
SCCF RECON,ioos:station:SCCF:56:1,2014-06-02T22:00:00Z,26.4645,-82.1044,1.68,6.74,1111122 
SCCF RECON,ioos:station:SCCF:56:1,2014-06-02T23:00:00Z,26.4645,-82.1044,1.67,6.05,1111122 
SCCF RECON,ioos:station:SCCF:56:1,2014-06-03T00:00:00Z,26.4645,-82.1044,1.62,5.35,1111122 
SCCF RECON,ioos:station:SCCF:56:1,2014-06-03T01:00:00Z,26.4645,-82.1044,1.56,4.95,1111122 
SCCF RECON,ioos:station:SCCF:56:1,2014-06-03T02:00:00Z,26.4645,-82.1044,1.47,4.53,1111122 
SCCF RECON,ioos:station:SCCF:56:1,2014-06-03T03:00:00Z,26.4645,-82.1044,1.381,4.26,1111122 
SCCF RECON,ioos:station:SCCF:56:1,2014-06-03T04:00:00Z,26.4645,-82.1044,1.31,4.07,1111122 
SCCF RECON,ioos:station:SCCF:56:1,2014-06-03T05:00:00Z,26.4645,-82.1044,1.26,4.1,1111122 
SCCF RECON,ioos:station:SCCF:56:1,2014-06-03T06:00:00Z,26.4645,-82.1044,1.267,5.14,1111122 
SCCF RECON,ioos:station:SCCF:56:1,2014-06-03T07:00:00Z,26.4645,-82.1044,1.31,5.34,1111122 
SCCF RECON,ioos:station:SCCF:56:1,2014-06-03T08:00:00Z,26.4645,-82.1044,1.37,5.34,1111122 
SCCF RECON,ioos:station:SCCF:56:1,2014-06-03T09:00:00Z,26.4645,-82.1044,1.44,5.43,1111122 
SCCF RECON,ioos:station:SCCF:56:1,2014-06-03T10:00:00Z,26.4645,-82.1044,1.5,5.1,1111122 
SCCF RECON,ioos:station:SCCF:56:1,2014-06-03T11:00:00Z,26.4645,-82.1044,1.54,4.66,1111122 
SCCF RECON,ioos:station:SCCF:56:1,2014-06-03T12:00:00Z,26.4645,-82.1044,1.57,4.36,1111122 
SCCF RECON,ioos:station:SCCF:56:1,2014-06-03T13:00:00Z,26.4645,-82.1044,1.59,4.35,1111122 
SCCF RECON,ioos:station:SCCF:56:1,2014-06-03T14:00:00Z,26.4645,-82.1044,1.59,4.48,1111122 
SCCF RECON,ioos:station:SCCF:56:1,2014-06-03T15:00:00Z,26.4645,-82.1044,1.58,4.69,1111122 
SCCF RECON,ioos:station:SCCF:56:1,2014-06-03T16:00:00Z,26.4645,-82.1044,1.56,4.54,1111122 
SCCF RECON,ioos:station:SCCF:56:1,2014-06-03T17:00:00Z,26.4645,-82.1044,1.56,5.67,1111122 
SCCF RECON,ioos:station:SCCF:56:1,2014-06-03T18:00:00Z,26.4645,-82.1044,1.58,7.35,1111122 
SCCF RECON,ioos:station:SCCF:56:1,2014-06-03T19:00:00Z,26.4645,-82.1044,1.61,7.36,1111122 
SCCF RECON,ioos:station:SCCF:56:1,2014-06-03T20:00:00Z,26.4645,-82.1044,1.64,7.96,1111122 
SCCF RECON,ioos:station:SCCF:56:1,2014-06-03T21:00:00Z,26.4645,-82.1044,1.68,7.71,1111122 
SCCF RECON,ioos:station:SCCF:56:1,2014-06-03T22:00:00Z,26.4645,-82.1044,1.71,6.99,1111122 
SCCF RECON,ioos:station:SCCF:56:1,2014-06-03T23:00:00Z,26.4645,-82.1044,1.71,7.02,1111122 
SCCF RECON,ioos:station:SCCF:56:1,2014-06-04T00:00:00Z,26.4645,-82.1044,1.69,6.87,1111122 
SCCF RECON,ioos:station:SCCF:56:1,2014-06-04T01:00:00Z,26.4645,-82.1044,1.64,6.44,1111122 
SCCF RECON,ioos:station:SCCF:56:1,2014-06-04T02:00:00Z,26.4645,-82.1044,1.579,5.4,1111122 
SCCF RECON,ioos:station:SCCF:56:1,2014-06-04T03:00:00Z,26.4645,-82.1044,1.51,4.74,1111122 
SCCF RECON,ioos:station:SCCF:56:1,2014-06-04T04:00:00Z,26.4645,-82.1044,1.44,4.46,1111122 
SCCF RECON,ioos:station:SCCF:56:1,2014-06-04T05:00:00Z,26.4645,-82.1044,1.38,4.14,1111122 
SCCF RECON,ioos:station:SCCF:56:1,2014-06-04T06:00:00Z,26.4645,-82.1044,1.34,4.37,1111122 
SCCF RECON,ioos:station:SCCF:56:1,2014-06-04T07:00:00Z,26.4645,-82.1044,1.35,5.25,1111122 
SCCF RECON,ioos:station:SCCF:56:1,2014-06-04T08:00:00Z,26.4645,-82.1044,1.4,5.4,1111122 
SCCF RECON,ioos:station:SCCF:56:1,2014-06-04T09:00:00Z,26.4645,-82.1044,1.45,5.31,1111122 
SCCF RECON,ioos:station:SCCF:56:1,2014-06-04T10:00:00Z,26.4645,-82.1044,1.519,5.21,1111122 
SCCF RECON,ioos:station:SCCF:56:1,2014-06-04T11:00:00Z,26.4645,-82.1044,1.57,4.94,1111122 
SCCF RECON,ioos:station:SCCF:56:1,2014-06-04T12:00:00Z,26.4645,-82.1044,1.603,4.74,1111122 
SCCF RECON,ioos:station:SCCF:56:1,2014-06-04T13:00:00Z,26.4645,-82.1044,1.62,4.79,1111122 
SCCF RECON,ioos:station:SCCF:56:1,2014-06-04T14:00:00Z,26.4645,-82.1044,1.62,5.0,1111122 
SCCF RECON,ioos:station:SCCF:56:1,2014-06-04T15:00:00Z,26.4645,-82.1044,1.61,5.03,1111122 
SCCF RECON,ioos:station:SCCF:56:1,2014-06-04T16:00:00Z,26.4645,-82.1044,1.59,5.15,1111122 
SCCF RECON,ioos:station:SCCF:56:1,2014-06-04T17:00:00Z,26.4645,-82.1044,1.58,5.45,1111122 
SCCF RECON,ioos:station:SCCF:56:1,2014-06-04T18:00:00Z,26.4645,-82.1044,1.58,6.06,1111122 
SCCF RECON,ioos:station:SCCF:56:1,2014-06-04T19:00:00Z,26.4645,-82.1044,1.62,8.74,1111122 
SCCF RECON,ioos:station:SCCF:56:1,2014-06-04T20:00:00Z,26.4645,-82.1044,1.68,8.73,1111122 
SCCF RECON,ioos:station:SCCF:56:1,2014-06-04T21:00:00Z,26.4645,-82.1044,1.7,8.73,1111122 
SCCF RECON,ioos:station:SCCF:56:1,2014-06-04T22:00:00Z,26.4645,-82.1044,1.68,8.69,1111122 
SCCF RECON,ioos:station:SCCF:56:1,2014-06-04T23:00:00Z,26.4645,-82.1044,1.67,8.58,1111122 
SCCF RECON,ioos:station:SCCF:56:1,2014-06-05T00:00:00Z,26.4645,-82.1044,1.65,8.28,1111122 
SCCF RECON,ioos:station:SCCF:56:1,2014-06-05T01:00:00Z,26.4645,-82.1044,1.62,7.78,1111122 
SCCF RECON,ioos:station:SCCF:56:1,2014-06-05T02:00:00Z,26.4645,-82.1044,1.58,7.14,1111122 
SCCF RECON,ioos:station:SCCF:56:1,2014-06-05T03:00:00Z,26.4645,-82.1044,1.53,5.84,1111122 
SCCF RECON,ioos:station:SCCF:56:1,2014-06-05T04:00:00Z,26.4645,-82.1044,1.49,5.13,1111122 
SCCF RECON,ioos:station:SCCF:56:1,2014-06-05T05:00:00Z,26.4645,-82.1044,1.43,5.68,1111122 
SCCF RECON,ioos:station:SCCF:56:1,2014-06-05T06:00:00Z,26.4645,-82.1044,1.385,5.32,1111122 
SCCF RECON,ioos:station:SCCF:56:1,2014-06-05T07:00:00Z,26.4645,-82.1044,1.351,4.95,1111122 
SCCF RECON,ioos:station:SCCF:56:1,2014-06-05T08:00:00Z,26.4645,-82.1044,1.35,5.33,1111122 
SCCF RECON,ioos:station:SCCF:56:1,2014-06-05T09:00:00Z,26.4645,-82.1044,1.39,5.94,1111122 
SCCF RECON,ioos:station:SCCF:56:1,2014-06-05T10:00:00Z,26.4645,-82.1044,1.45,5.81,1111122 
SCCF RECON,ioos:station:SCCF:56:1,2014-06-05T11:00:00Z,26.4645,-82.1044,1.504,5.26,1111122 
SCCF RECON,ioos:station:SCCF:56:1,2014-06-05T12:00:00Z,26.4645,-82.1044,1.56,5.62,1111122 
SCCF RECON,ioos:station:SCCF:56:1,2014-06-05T13:00:00Z,26.4645,-82.1044,1.61,5.91,1111122 
SCCF RECON,ioos:station:SCCF:56:1,2014-06-05T14:00:00Z,26.4645,-82.1044,1.64,5.59,1111122 
SCCF RECON,ioos:station:SCCF:56:1,2014-06-05T15:00:00Z,26.4645,-82.1044,1.65,5.7,1111122 
SCCF RECON,ioos:station:SCCF:56:1,2014-06-05T17:00:00Z,26.4645,-82.1044,1.17,6.23,1111122 
SCCF RECON,ioos:station:SCCF:56:1,2014-06-05T18:00:00Z,26.4645,-82.1044,1.31,6.49,1111122 
SCCF RECON,ioos:station:SCCF:56:1,2014-06-05T19:00:00Z,26.4645,-82.1044,1.39,6.88,1111122 
SCCF RECON,ioos:station:SCCF:56:1,2014-06-05T20:00:00Z,26.4645,-82.1044,1.48,8.6,1111122 
SCCF RECON,ioos:station:SCCF:56:1,2014-06-05T21:00:00Z,26.4645,-82.1044,1.53,8.61,1111122 
SCCF RECON,ioos:station:SCCF:56:1,2014-06-05T22:00:00Z,26.4645,-82.1044,1.54,8.69,1111122 
SCCF RECON,ioos:station:SCCF:56:1,2014-06-05T23:00:00Z,26.4645,-82.1044,1.56,8.69,1111122 
SCCF RECON,ioos:station:SCCF:56:1,2014-06-06T00:00:00Z,26.4645,-82.1044,1.61,8.32,1111122 
SCCF RECON,ioos:station:SCCF:56:1,2014-06-06T01:00:00Z,26.4645,-82.1044,1.69,8.71,1111122 
SCCF RECON,ioos:station:SCCF:56:1,2014-06-06T02:00:00Z,26.4645,-82.1044,1.71,8.73,1111122 
SCCF RECON,ioos:station:SCCF:56:1,2014-06-06T03:00:00Z,26.4645,-82.1044,1.69,8.57,1111122 
SCCF RECON,ioos:station:SCCF:56:1,2014-06-06T04:00:00Z,26.4645,-82.1044,1.64,7.14,1111122 
SCCF RECON,ioos:station:SCCF:56:1,2014-06-06T05:00:00Z,26.4645,-82.1044,1.588,5.7,1111122 
SCCF RECON,ioos:station:SCCF:56:1,2014-06-06T06:00:00Z,26.4645,-82.1044,1.53,5.48,1111122 
SCCF RECON,ioos:station:SCCF:56:1,2014-06-06T07:00:00Z,26.4645,-82.1044,1.49,5.08,1111122 
SCCF RECON,ioos:station:SCCF:56:1,2014-06-06T08:00:00Z,26.4645,-82.1044,1.45,4.58,1111122 
SCCF RECON,ioos:station:SCCF:56:1,2014-06-06T09:00:00Z,26.4645,-82.1044,1.45,4.82,1111122 
SCCF RECON,ioos:station:SCCF:56:1,2014-06-06T10:00:00Z,26.4645,-82.1044,1.5,5.26,1111122 
SCCF RECON,ioos:station:SCCF:56:1,2014-06-06T11:00:00Z,26.4645,-82.1044,1.58,5.21,1111122 
SCCF RECON,ioos:station:SCCF:56:1,2014-06-06T12:00:00Z,26.4645,-82.1044,1.659,5.33,1111122 
SCCF RECON,ioos:station:SCCF:56:1,2014-06-06T13:00:00Z,26.4645,-82.1044,1.72,5.62,1111122 
SCCF RECON,ioos:station:SCCF:56:1,2014-06-06T14:00:00Z,26.4645,-82.1044,1.76,5.96,1111122 
SCCF RECON,ioos:station:SCCF:56:1,2014-06-06T15:00:00Z,26.4645,-82.1044,1.76,5.76,1111122 
SCCF RECON,ioos:station:SCCF:56:1,2014-06-06T16:00:00Z,26.4645,-82.1044,1.74,6.14,1111122 
SCCF RECON,ioos:station:SCCF:56:1,2014-06-06T17:00:00Z,26.4645,-82.1044,1.71,5.53,1111122 
SCCF RECON,ioos:station:SCCF:56:1,2014-06-06T18:00:00Z,26.4645,-82.1044,1.67,5.68,1111122 
SCCF RECON,ioos:station:SCCF:56:1,2014-06-06T19:00:00Z,26.4645,-82.1044,1.62,6.0,1111122 
SCCF RECON,ioos:station:SCCF:56:1,2014-06-06T20:00:00Z,26.4645,-82.1044,1.58,6.29,1111122 
SCCF RECON,ioos:station:SCCF:56:1,2014-06-06T21:00:00Z,26.4645,-82.1044,1.54,6.84,1111122 
SCCF RECON,ioos:station:SCCF:56:1,2014-06-06T22:00:00Z,26.4645,-82.1044,1.52,8.38,1111122 
SCCF RECON,ioos:station:SCCF:56:1,2014-06-06T23:00:00Z,26.4645,-82.1044,1.49,8.45,1111122 
SCCF RECON,ioos:station:SCCF:56:1,2014-06-07T00:00:00Z,26.4645,-82.1044,1.515,8.51,1111122 
SCCF RECON,ioos:station:SCCF:56:1,2014-06-07T01:00:00Z,26.4645,-82.1044,1.56,8.52,1111122 
SCCF RECON,ioos:station:SCCF:56:1,2014-06-07T02:00:00Z,26.4645,-82.1044,1.599,8.53,1111122 
SCCF RECON,ioos:station:SCCF:56:1,2014-06-07T03:00:00Z,26.4645,-82.1044,1.6,8.52,1111122 
SCCF RECON,ioos:station:SCCF:56:1,2014-06-07T04:00:00Z,26.4645,-82.1044,1.59,8.28,1111122 
SCCF RECON,ioos:station:SCCF:56:1,2014-06-07T05:00:00Z,26.4645,-82.1044,1.57,6.95,1111122 
SCCF RECON,ioos:station:SCCF:56:1,2014-06-07T06:00:00Z,26.4645,-82.1044,1.54,5.75,1111122 
SCCF RECON,ioos:station:SCCF:56:1,2014-06-07T07:00:00Z,26.4645,-82.1044,1.5,5.04,1111122 
SCCF RECON,ioos:station:SCCF:56:1,2014-06-07T08:00:00Z,26.4645,-82.1044,1.46,4.77,1111122 
SCCF RECON,ioos:station:SCCF:56:1,2014-06-07T09:00:00Z,26.4645,-82.1044,1.408,4.32,1111122 
SCCF RECON,ioos:station:SCCF:56:1,2014-06-07T10:00:00Z,26.4645,-82.1044,1.44,4.86,1111122 
SCCF RECON,ioos:station:SCCF:56:1,2014-06-07T11:00:00Z,26.4645,-82.1044,1.5,4.46,1111122 
SCCF RECON,ioos:station:SCCF:56:1,2014-06-07T12:00:00Z,26.4645,-82.1044,1.57,4.67,1111122 
SCCF RECON,ioos:station:SCCF:56:1,2014-06-07T13:00:00Z,26.4645,-82.1044,1.64,5.06,1111122 
SCCF RECON,ioos:station:SCCF:56:1,2014-06-07T14:00:00Z,26.4645,-82.1044,1.73,6.49,1111122 
SCCF RECON,ioos:station:SCCF:56:1,2014-06-07T15:00:00Z,26.4645,-82.1044,1.76,5.97,1111122 
SCCF RECON,ioos:station:SCCF:56:1,2014-06-07T16:00:00Z,26.4645,-82.1044,1.786,5.98,1111122 
SCCF RECON,ioos:station:SCCF:56:1,2014-06-07T17:00:00Z,26.4645,-82.1044,1.77,5.78,1111122 
SCCF RECON,ioos:station:SCCF:56:1,2014-06-07T18:00:00Z,26.4645,-82.1044,1.73,5.48,1111122 
SCCF RECON,ioos:station:SCCF:56:1,2014-06-07T19:00:00Z,26.4645,-82.1044,1.66,6.13,1111122 
SCCF RECON,ioos:station:SCCF:56:1,2014-06-07T20:00:00Z,26.4645,-82.1044,1.58,6.62,1111122 
SCCF RECON,ioos:station:SCCF:56:1,2014-06-07T21:00:00Z,26.4645,-82.1044,1.52,7.29,1111122 
SCCF RECON,ioos:station:SCCF:56:1,2014-06-07T22:00:00Z,26.4645,-82.1044,1.47,8.22,1111122 
SCCF RECON,ioos:station:SCCF:56:1,2014-06-07T23:00:00Z,26.4645,-82.1044,1.44,8.35,1111122 
SCCF RECON,ioos:station:SCCF:56:1,2014-06-08T00:00:00Z,26.4645,-82.1044,1.46,8.39,1111122 
SCCF RECON,ioos:station:SCCF:56:1,2014-06-08T01:00:00Z,26.4645,-82.1044,1.48,8.08,1111122 
SCCF RECON,ioos:station:SCCF:56:1,2014-06-08T02:00:00Z,26.4645,-82.1044,1.53,8.44,1111122 
SCCF RECON,ioos:station:SCCF:56:1,2014-06-08T03:00:00Z,26.4645,-82.1044,1.56,7.26,1111122 
SCCF RECON,ioos:station:SCCF:56:1,2014-06-08T04:00:00Z,26.4645,-82.1044,1.58,6.82,1111122 
SCCF RECON,ioos:station:SCCF:56:1,2014-06-08T05:00:00Z,26.4645,-82.1044,1.6,6.98,1111122 
SCCF RECON,ioos:station:SCCF:56:1,2014-06-08T06:00:00Z,26.4645,-82.1044,1.59,6.67,1111122 
SCCF RECON,ioos:station:SCCF:56:1,2014-06-08T07:00:00Z,26.4645,-82.1044,1.57,6.57,1111122 
SCCF RECON,ioos:station:SCCF:56:1,2014-06-08T08:00:00Z,26.4645,-82.1044,1.54,5.92,1111122 
SCCF RECON,ioos:station:SCCF:56:1,2014-06-08T09:00:00Z,26.4645,-82.1044,1.51,5.32,1111122 
SCCF RECON,ioos:station:SCCF:56:1,2014-06-08T10:00:00Z,26.4645,-82.1044,1.489,4.63,1111122 
SCCF RECON,ioos:station:SCCF:56:1,2014-06-08T11:00:00Z,26.4645,-82.1044,1.51,4.29,1111122 
SCCF RECON,ioos:station:SCCF:56:1,2014-06-08T12:00:00Z,26.4645,-82.1044,1.58,2.86,1111122 
SCCF RECON,ioos:station:SCCF:56:1,2014-06-08T13:00:00Z,26.4645,-82.1044,1.68,4.75,1111122 
SCCF RECON,ioos:station:SCCF:56:1,2014-06-08T14:00:00Z,26.4645,-82.1044,1.76,5.29,1111122 
SCCF RECON,ioos:station:SCCF:56:1,2014-06-08T15:00:00Z,26.4645,-82.1044,1.813,5.04,1111122 
SCCF RECON,ioos:station:SCCF:56:1,2014-06-08T16:00:00Z,26.4645,-82.1044,1.83,5.32,1111122 
SCCF RECON,ioos:station:SCCF:56:1,2014-06-08T17:00:00Z,26.4645,-82.1044,1.81,5.49,1111122 
SCCF RECON,ioos:station:SCCF:56:1,2014-06-08T18:00:00Z,26.4645,-82.1044,1.76,5.06,1111122 
SCCF RECON,ioos:station:SCCF:56:1,2014-06-08T19:00:00Z,26.4645,-82.1044,1.69,5.42,1111122 
SCCF RECON,ioos:station:SCCF:56:1,2014-06-08T20:00:00Z,26.4645,-82.1044,1.6,5.78,1111122 
SCCF RECON,ioos:station:SCCF:56:1,2014-06-08T21:00:00Z,26.4645,-82.1044,1.51,6.21,1111122 
SCCF RECON,ioos:station:SCCF:56:1,2014-06-08T22:00:00Z,26.4645,-82.1044,1.44,6.86,1111122 
SCCF RECON,ioos:station:SCCF:56:1,2014-06-08T23:00:00Z,26.4645,-82.1044,1.41,7.77,1111122 
SCCF RECON,ioos:station:SCCF:56:1,2014-06-09T00:00:00Z,26.4645,-82.1044,1.39,8.26,1111122 
SCCF RECON,ioos:station:SCCF:56:1,2014-06-09T01:00:00Z,26.4645,-82.1044,1.41,8.34,1111122 
SCCF RECON,ioos:station:SCCF:56:1,2014-06-09T02:00:00Z,26.4645,-82.1044,1.45,8.4,1111122 
SCCF RECON,ioos:station:SCCF:56:1,2014-06-09T03:00:00Z,26.4645,-82.1044,1.51,7.39,1111122 
SCCF RECON,ioos:station:SCCF:56:1,2014-06-09T04:00:00Z,26.4645,-82.1044,1.57,6.69,1111122 
SCCF RECON,ioos:station:SCCF:56:1,2014-06-09T05:00:00Z,26.4645,-82.1044,1.582,6.48,1111122 
SCCF RECON,ioos:station:SCCF:56:1,2014-06-09T06:00:00Z,26.4645,-82.1044,1.57,5.86,1111122 
SCCF RECON,ioos:station:SCCF:56:1,2014-06-09T07:00:00Z,26.4645,-82.1044,1.533,5.76,1111122 
SCCF RECON,ioos:station:SCCF:56:1,2014-06-09T08:00:00Z,26.4645,-82.1044,1.5,5.08,1111122 
SCCF RECON,ioos:station:SCCF:56:1,2014-06-09T09:00:00Z,26.4645,-82.1044,1.47,4.13,1111122 
SCCF RECON,ioos:station:SCCF:56:1,2014-06-09T10:00:00Z,26.4645,-82.1044,1.464,4.01,1111122 
SCCF RECON,ioos:station:SCCF:56:1,2014-06-09T11:00:00Z,26.4645,-82.1044,1.49,4.4,1111122 
SCCF RECON,ioos:station:SCCF:56:1,2014-06-09T12:00:00Z,26.4645,-82.1044,1.552,3.22,1111122 
SCCF RECON,ioos:station:SCCF:56:1,2014-06-09T13:00:00Z,26.4645,-82.1044,1.65,4.29,1111122 
SCCF RECON,ioos:station:SCCF:56:1,2014-06-09T14:00:00Z,26.4645,-82.1044,1.75,5.32,1111122 
SCCF RECON,ioos:station:SCCF:56:1,2014-06-09T15:00:00Z,26.4645,-82.1044,1.82,5.62,1111122 
SCCF RECON,ioos:station:SCCF:56:1,2014-06-09T16:00:00Z,26.4645,-82.1044,1.846,5.41,1111122 
SCCF RECON,ioos:station:SCCF:56:1,2014-06-09T17:00:00Z,26.4645,-82.1044,1.84,5.3,1111122 
SCCF RECON,ioos:station:SCCF:56:1,2014-06-09T18:00:00Z,26.4645,-82.1044,1.8,5.32,1111122 
SCCF RECON,ioos:station:SCCF:56:1,2014-06-09T19:00:00Z,26.4645,-82.1044,1.73,5.21,1111122 
SCCF RECON,ioos:station:SCCF:56:1,2014-06-09T20:00:00Z,26.4645,-82.1044,1.64,5.67,1111122 
SCCF RECON,ioos:station:SCCF:56:1,2014-06-09T21:00:00Z,26.4645,-82.1044,1.53,5.96,1111122 
SCCF RECON,ioos:station:SCCF:56:1,2014-06-09T22:00:00Z,26.4645,-82.1044,1.422,6.27,1111122 
SCCF RECON,ioos:station:SCCF:56:1,2014-06-09T23:00:00Z,26.4645,-82.1044,1.34,6.36,1111122 
SCCF RECON,ioos:station:SCCF:56:1,2014-06-10T00:00:00Z,26.4645,-82.1044,1.31,6.79,1111122 
SCCF RECON,ioos:station:SCCF:56:1,2014-06-10T01:00:00Z,26.4645,-82.1044,1.32,7.36,1111122 
SCCF RECON,ioos:station:SCCF:56:1,2014-06-10T02:00:00Z,26.4645,-82.1044,1.38,8.4,1111122 
SCCF RECON,ioos:station:SCCF:56:1,2014-06-10T03:00:00Z,26.4645,-82.1044,1.45,7.29,1111122 
SCCF RECON,ioos:station:SCCF:56:1,2014-06-10T04:00:00Z,26.4645,-82.1044,1.53,5.98,1111122 
SCCF RECON,ioos:station:SCCF:56:1,2014-06-10T05:00:00Z,26.4645,-82.1044,1.59,6.08,1111122 
SCCF RECON,ioos:station:SCCF:56:1,2014-06-10T06:00:00Z,26.4645,-82.1044,1.63,5.66,1111122 
SCCF RECON,ioos:station:SCCF:56:1,2014-06-10T07:00:00Z,26.4645,-82.1044,1.63,5.58,1111122 
SCCF RECON,ioos:station:SCCF:56:1,2014-06-10T08:00:00Z,26.4645,-82.1044,1.61,5.13,1111122 
SCCF RECON,ioos:station:SCCF:56:1,2014-06-10T09:00:00Z,26.4645,-82.1044,1.59,4.72,1111122 
SCCF RECON,ioos:station:SCCF:56:1,2014-06-10T10:00:00Z,26.4645,-82.1044,1.57,4.56,1111122 
SCCF RECON,ioos:station:SCCF:56:1,2014-06-10T11:00:00Z,26.4645,-82.1044,1.56,4.04,1111122 
SCCF RECON,ioos:station:SCCF:56:1,2014-06-10T12:00:00Z,26.4645,-82.1044,1.58,3.87,1111122 
SCCF RECON,ioos:station:SCCF:56:1,2014-06-10T13:00:00Z,26.4645,-82.1044,1.65,4.24,1111122 
SCCF RECON,ioos:station:SCCF:56:1,2014-06-10T14:00:00Z,26.4645,-82.1044,1.74,5.0,1111122 
SCCF RECON,ioos:station:SCCF:56:1,2014-06-10T15:00:00Z,26.4645,-82.1044,1.83,5.74,1111122 
SCCF RECON,ioos:station:SCCF:56:1,2014-06-10T16:00:00Z,26.4645,-82.1044,1.9,6.25,1111122 
SCCF RECON,ioos:station:SCCF:56:1,2014-06-10T17:00:00Z,26.4645,-82.1044,1.92,5.53,1111122 
SCCF RECON,ioos:station:SCCF:56:1,2014-06-10T18:00:00Z,26.4645,-82.1044,1.91,6.08,1111122 
SCCF RECON,ioos:station:SCCF:56:1,2014-06-10T19:00:00Z,26.4645,-82.1044,1.85,5.81,1111122 
SCCF RECON,ioos:station:SCCF:56:1,2014-06-10T20:00:00Z,26.4645,-82.1044,1.74,5.26,1111122 
SCCF RECON,ioos:station:SCCF:56:1,2014-06-10T21:00:00Z,26.4645,-82.1044,1.63,5.45,1111122 
SCCF RECON,ioos:station:SCCF:56:1,2014-06-10T22:00:00Z,26.4645,-82.1044,1.51,5.62,1111122 
SCCF RECON,ioos:station:SCCF:56:1,2014-06-10T23:00:00Z,26.4645,-82.1044,1.41,6.27,1111122 
SCCF RECON,ioos:station:SCCF:56:1,2014-06-11T00:00:00Z,26.4645,-82.1044,1.34,6.43,1111122 
SCCF RECON,ioos:station:SCCF:56:1,2014-06-11T01:00:00Z,26.4645,-82.1044,1.31,7.11,1111122 
SCCF RECON,ioos:station:SCCF:56:1,2014-06-11T02:00:00Z,26.4645,-82.1044,1.32,6.45,1111122 
SCCF RECON,ioos:station:SCCF:56:1,2014-06-11T03:00:00Z,26.4645,-82.1044,1.381,6.0,1111122 
SCCF RECON,ioos:station:SCCF:56:1,2014-06-11T04:00:00Z,26.4645,-82.1044,1.46,5.45,1111122 
SCCF RECON,ioos:station:SCCF:56:1,2014-06-11T05:00:00Z,26.4645,-82.1044,1.54,4.97,1111122 
SCCF RECON,ioos:station:SCCF:56:1,2014-06-11T06:00:00Z,26.4645,-82.1044,1.61,5.18,1111122 
SCCF RECON,ioos:station:SCCF:56:1,2014-06-11T07:00:00Z,26.4645,-82.1044,1.65,5.22,1111122 
SCCF RECON,ioos:station:SCCF:56:1,2014-06-11T08:00:00Z,26.4645,-82.1044,1.65,4.76,1111122 
SCCF RECON,ioos:station:SCCF:56:1,2014-06-11T09:00:00Z,26.4645,-82.1044,1.63,4.47,1111122 
SCCF RECON,ioos:station:SCCF:56:1,2014-06-11T10:00:00Z,26.4645,-82.1044,1.59,3.96,1111122 
SCCF RECON,ioos:station:SCCF:56:1,2014-06-11T11:00:00Z,26.4645,-82.1044,1.578,3.48,1111122 
SCCF RECON,ioos:station:SCCF:56:1,2014-06-11T12:00:00Z,26.4645,-82.1044,1.58,3.98,1111122 
SCCF RECON,ioos:station:SCCF:56:1,2014-06-11T13:00:00Z,26.4645,-82.1044,1.63,2.95,1111122 
SCCF RECON,ioos:station:SCCF:56:1,2014-06-11T14:00:00Z,26.4645,-82.1044,1.72,4.74,1111122 
SCCF RECON,ioos:station:SCCF:56:1,2014-06-11T15:00:00Z,26.4645,-82.1044,1.801,5.39,1111122 
SCCF RECON,ioos:station:SCCF:56:1,2014-06-11T16:00:00Z,26.4645,-82.1044,1.88,5.65,1111122 
SCCF RECON,ioos:station:SCCF:56:1,2014-06-11T17:00:00Z,26.4645,-82.1044,1.93,6.17,1111122 
SCCF RECON,ioos:station:SCCF:56:1,2014-06-11T18:00:00Z,26.4645,-82.1044,1.93,6.33,1111122 
SCCF RECON,ioos:station:SCCF:56:1,2014-06-11T19:00:00Z,26.4645,-82.1044,1.9,5.71,1111122 
SCCF RECON,ioos:station:SCCF:56:1,2014-06-11T20:00:00Z,26.4645,-82.1044,1.82,5.47,1111122 
SCCF RECON,ioos:station:SCCF:56:1,2014-06-11T21:00:00Z,26.4645,-82.1044,1.72,5.83,1111122 
SCCF RECON,ioos:station:SCCF:56:1,2014-06-11T22:00:00Z,26.4645,-82.1044,1.6,5.95,1111122 